This demonstration page uses our WeatherBlox Daily Observations layout. Learn more.

39.92423, -83.80882

Hourly Observations for September 29, 2017

Temp ( °F °C ) Dew Point ( °F °C ) Humidity (%) Winds ( mph kmh ) Pressure ( in mb ) Visibility ( mi km ) Precip ( " mm )
12:56 am 00:56 Clear 51 10.6 45 7.2 80 80 NE 6 9 30.12 1020 10 16.09344 0 0
1:56 am 01:56 Clear 50 10 46 7.8 86 86 Calm 30.15 1021 10 16.09344 0 0
2:56 am 02:56 Clear 48 8.9 46 7.8 93 93 ESE 3 6 30.12 1020 10 16.09344 0 0
3:56 am 03:56 Clear 47 8.3 45 7.2 93 93 Calm 30.12 1020 10 16.09344 0 0
4:56 am 04:56 Clear 46 7.8 44 6.7 93 93 Calm 30.12 1020 10 16.09344 0 0
5:56 am 05:56 Clear 45 7.2 44 6.7 97 97 Calm 30.15 1021 10 16.09344 0 0
6:56 am 06:56 Clear 44 6.7 43 6.1 96 96 Calm 30.15 1021 10 16.09344 0 0
7:56 am 07:56 Sunny 45 7.2 44 6.7 97 97 Calm 30.15 1021 10 16.09344 0 0
8:56 am 08:56 Sunny 53 11.7 49 9.4 86 86 S 5 7 30.15 1021 10 16.09344 0 0
9:56 am 09:56 Mostly Cloudy 60 15.6 49 9.4 67 67 WSW 6 9 30.15 1021 10 16.09344 0 0
10:56 am 10:56 Cloudy 65 18.3 49 9.4 56 56 W 7 11 30.15 1021 10 16.09344 0 0
11:56 am 11:56 Cloudy 67 19.4 48 8.9 51 51 WSW 8 13 30.15 1021 10 16.09344 0 0
12:56 pm 12:56 Mostly Cloudy 70 21.1 47 8.3 44 44 WSW 12 19 30.15 1021 10 16.09344 0 0
2:56 pm 14:56 Cloudy 72 22.2 47 8.3 41 41 WSW 12 19 30.09 1019 10 16.09344 0 0
3:56 pm 15:56 Mostly Cloudy 72 22.2 48 8.9 43 43 NW 13 20 30.09 1019 10 16.09344 0 0
4:56 pm 16:56 Mostly Sunny 73 22.8 49 9.4 43 43 WNW 12 19 30.09 1019 10 16.09344 0 0
5:56 pm 17:56 Mostly Sunny 72 22.2 47 8.3 41 41 NW 16 26 30.09 1019 10 16.09344 0 0
6:56 pm 18:56 Sunny 68 20 47 8.3 47 47 NNW 9 15 30.12 1020 10 16.09344 0 0
7:56 pm 19:56 Mostly Clear 63 17.2 44 6.7 50 50 N 7 11 30.15 1021 10 16.09344 0 0
8:56 pm 20:56 Clear 59 15 42 5.6 54 54 NNW 8 13 30.18 1022 10 16.09344 0 0
9:56 pm 21:56 Clear 56 13.3 42 5.6 60 60 N 7 11 30.18 1022 10 16.09344 0 0
10:56 pm 22:56 Clear 55 12.8 43 6.1 64 64 NNW 6 9 30.21 1023 10 16.09344 0 0
11:56 pm 23:56 Clear 53 11.7 43 6.1 69 69 NNW 6 9 30.24 1024 10 16.09344 0 0

Powered by AerisWeather